Weather History for Kake, AK

Change the Weather History Date:

Saturday, October 13, 2012

  Actual Average Record
Temperature  
Mean Temperature 48 °F -  
Max Temperature 51 °F 47 °F 57 °F (2004)
Min Temperature 46 °F 39 °F 37 °F (1997)
Degree Days  
Heating Degree Days 16    
Moisture  
Dew Point 45 °F    
Average Humidity 85    
Maximum Humidity 93    
Minimum Humidity 82    
Precipitation  
Precipitation 0.00 in - - ()
Sea Level Pressure  
Sea Level Pressure 29.56 in    
Wind  
Wind Speed 12 mph (SE)    
Max Wind Speed 18 mph    
Max Gust Speed 29 mph    
Visibility 10 miles    
Events      
Averages and records for this station are not official NWS values.
T = Trace of Precipitation, MM = Missing Value Source: NWS Daily Summary

Daily Weather History Graph

Daily Weather History Graph

Search for Another Location

Airport:

Trip Planner

Search our weather history database for the weather conditions in past years. The results will help you decide how hot, cold, wet, or windy it might be!

Date:

Astronomy

Oct. 13, 2012 Rise Set
Actual Time 7:25 AM AKDT 5:56 PM AKDT
Civil Twilight 6:47 AM AKDT 6:34 PM AKDT
Nautical Twilight 6:03 AM AKDT 7:18 PM AKDT
Astronomical Twilight 5:18 AM AKDT 8:03 PM AKDT
Moon 5:08 AM AKDT (10/13) 4:53 PM AKDT (10/13)
Length of Visible Light 11h 47m
Length of Day
10h 30m
Waning Crescent, 4% of the Moon is Illuminated
Oct 13
Waning Crescent
Oct 15
New
Oct 21
First Quarter
Oct 29
Full
Nov 6
Last Quarter

Hourly Weather History & Observations

Time (AKDT) Temp. Windchill Dew Point Humidity Pressure Visibility Wind Dir Wind Speed Gust Speed Precip Events Conditions
12:56 AM 48.2 °F - 46.4 °F 93% 29.40 in 10.0 mi SE 10.4 mph - N/A   Mostly Cloudy
1:16 AM 48.2 °F - 46.4 °F 93% 29.41 in 10.0 mi SE 10.4 mph 18.4 mph N/A   Overcast
1:36 AM 48.2 °F - 46.4 °F 93% 29.42 in 10.0 mi SE 11.5 mph - N/A   Overcast
2:56 AM 48.2 °F - 44.6 °F 87% 29.48 in 10.0 mi SSE 11.5 mph - N/A   Scattered Clouds
3:16 AM 48.2 °F - 44.6 °F 87% 29.49 in 10.0 mi SSE 11.5 mph 20.7 mph N/A   Clear
3:56 AM 48.2 °F - 42.8 °F 82% 29.52 in 10.0 mi SSE 5.8 mph - N/A   Mostly Cloudy
4:16 AM 48.2 °F - 42.8 °F 82% 29.51 in 10.0 mi SE 11.5 mph - N/A   Mostly Cloudy
4:56 AM 48.2 °F - 42.8 °F 82% 29.54 in 10.0 mi SE 15.0 mph - N/A   Mostly Cloudy
5:56 AM 46.4 °F 40.7 °F 42.8 °F 87% 29.54 in 10.0 mi SE 12.7 mph 18.4 mph N/A   Mostly Cloudy
6:56 AM 48.2 °F - 44.6 °F 87% 29.57 in 10.0 mi ESE 11.5 mph - N/A   Overcast
7:36 AM 48.2 °F - 44.6 °F 87% 29.58 in 10.0 mi SE 13.8 mph 19.6 mph N/A   Mostly Cloudy
7:56 AM 48.2 °F - 44.6 °F 87% 29.59 in 9.0 mi SE 10.4 mph 16.1 mph N/A   Mostly Cloudy
8:56 AM 48.2 °F - 44.6 °F 87% 29.60 in 8.0 mi SE 11.5 mph - N/A   Mostly Cloudy
9:16 AM 48.2 °F - 44.6 °F 87% 29.61 in 10.0 mi SE 11.5 mph - N/A   Mostly Cloudy
9:36 AM 48.2 °F - 44.6 °F 87% 29.61 in 10.0 mi SE 11.5 mph - N/A   Scattered Clouds
10:36 AM 50.0 °F - 46.4 °F 87% 29.61 in 8.0 mi SE 12.7 mph 20.7 mph N/A   Mostly Cloudy
10:56 AM 50.0 °F - 46.4 °F 87% 29.62 in 8.0 mi SE 13.8 mph 19.6 mph N/A   Mostly Cloudy
11:16 AM 50.0 °F - 46.4 °F 87% 29.63 in 9.0 mi SE 13.8 mph 20.7 mph N/A   Mostly Cloudy
11:36 AM 51.8 °F - 46.4 °F 82% 29.62 in 8.0 mi SE 12.7 mph - N/A   Overcast
11:56 AM 51.8 °F - 46.4 °F 82% 29.62 in 9.0 mi SE 12.7 mph 19.6 mph N/A   Overcast
12:36 PM 51.8 °F - 46.4 °F 82% 29.61 in 10.0 mi SE 16.1 mph 21.9 mph N/A   Mostly Cloudy
12:56 PM 51.8 °F - 46.4 °F 82% 29.61 in 10.0 mi SE 16.1 mph 20.7 mph N/A   Overcast
1:16 PM 51.8 °F - 46.4 °F 82% 29.62 in 8.0 mi SSE 15.0 mph 21.9 mph N/A   Overcast
1:36 PM 51.8 °F - 46.4 °F 82% 29.62 in 9.0 mi SE 13.8 mph 21.9 mph N/A   Overcast
1:56 PM 51.8 °F - 48.2 °F 88% 29.61 in 9.0 mi SE 15.0 mph 18.4 mph N/A   Overcast
2:16 PM 51.8 °F - 46.4 °F 82% 29.60 in 10.0 mi SE 15.0 mph 20.7 mph N/A   Mostly Cloudy
2:36 PM 51.8 °F - 46.4 °F 82% 29.60 in 10.0 mi SE 17.3 mph 21.9 mph N/A   Overcast
2:56 PM 51.8 °F - 46.4 °F 82% 29.60 in 9.0 mi SE 18.4 mph 24.2 mph N/A   Overcast
3:16 PM 51.8 °F - 46.4 °F 82% 29.61 in 10.0 mi SSE 16.1 mph 21.9 mph N/A   Overcast
3:36 PM 51.8 °F - 46.4 °F 82% 29.62 in 8.0 mi SSE 11.5 mph 19.6 mph N/A   Mostly Cloudy
3:56 PM 50.0 °F - 46.4 °F 87% 29.61 in 10.0 mi SE 13.8 mph 21.9 mph N/A   Overcast
4:16 PM 50.0 °F - 46.4 °F 87% 29.60 in 10.0 mi SSE 16.1 mph 23.0 mph N/A   Mostly Cloudy
4:36 PM 51.8 °F - 46.4 °F 82% 29.60 in 9.0 mi SSE 17.3 mph 28.8 mph N/A   Overcast
4:56 PM 51.8 °F - 46.4 °F 82% 29.60 in 7.0 mi SE 18.4 mph 26.5 mph N/A   Overcast
5:56 PM 50.0 °F - 44.6 °F 82% 29.59 in 10.0 mi SE 13.8 mph 23.0 mph N/A   Overcast
6:16 PM 50.0 °F - 44.6 °F 82% 29.59 in 10.0 mi SE 13.8 mph - N/A   Overcast
6:36 PM 50.0 °F - 44.6 °F 82% 29.59 in 10.0 mi SE 18.4 mph 24.2 mph N/A   Overcast
6:56 PM 48.2 °F - 44.6 °F 87% 29.59 in 10.0 mi SE 12.7 mph 23.0 mph N/A   Overcast
7:16 PM 48.2 °F - 44.6 °F 87% 29.58 in 10.0 mi SE 15.0 mph 21.9 mph N/A   Overcast
8:16 PM 48.2 °F - 44.6 °F 87% 29.57 in 10.0 mi ESE 6.9 mph - N/A   Overcast
8:36 PM 48.2 °F - 44.6 °F 87% 29.56 in 10.0 mi ESE 10.4 mph - N/A   Mostly Cloudy
9:16 PM 48.2 °F - 44.6 °F 87% 29.54 in 10.0 mi East 8.1 mph 16.1 mph N/A   Overcast
9:36 PM 48.2 °F - 44.6 °F 87% 29.52 in 10.0 mi ESE 5.8 mph - N/A   Overcast
9:56 PM 48.2 °F - 44.6 °F 87% 29.51 in 10.0 mi ESE 9.2 mph - N/A   Overcast
10:16 PM 48.2 °F - 42.8 °F 82% 29.50 in 10.0 mi East 6.9 mph - N/A   Overcast
10:36 PM 48.2 °F - 42.8 °F 82% 29.48 in 10.0 mi East 5.8 mph - N/A   Overcast
10:56 PM 48.2 °F - 42.8 °F 82% 29.46 in 10.0 mi East 5.8 mph - N/A   Overcast
11:16 PM 48.2 °F - 42.8 °F 82% 29.43 in 10.0 mi East 9.2 mph - N/A   Overcast
11:36 PM 48.2 °F - 42.8 °F 82% 29.41 in 10.0 mi East 10.4 mph - N/A   Scattered Clouds
11:56 PM 48.2 °F - 42.8 °F 82% 29.39 in 10.0 mi East 9.2 mph - N/A   Partly Cloudy